Back to catalog

STARLINK-37477

AliveCommunicationsSSO
NORAD 68912·PAYLOAD·🇺🇸 United States

Launched Apr 30, 2026 from Vandenberg Space Force Base

Loading…

Next Passes (next 24 hours)

TLE

FreshSource: CelesTrak SupGP

Epoch: Sep 14, 2026, 14:28 UTC

1 68912C 26097T   26257.60326389 -.00044580  00000+0 -13833-2 0  2578
2 68912  97.2849  91.8654 0001628  86.6192 161.5976 15.33474938    12

Track STARLINK-37477 in real time with AllMySat

Download on the App Store